Theta_e
295 295 296 297 297 297 297 297 297 297 297 297 297 297 297 297 297 294 291 295 289 283 284 286 285 281 281 281 276 278 277 277 281 276 277 280 280 282 281 282 283 283 281 280 281 279 277 289 288 284 285 289 290 289
296 295 295 296 296 296 296 296 296 296 296 296 297 297 297 297 296 296 288 294 294 286 284 289 289 290 288 286 282 277 276 273 278 276 278 277 273 275 276 274 282 278 278 274 277 279 285 286 285 288 290 290 289 287
295 296 295 295 295 296 296 296 296 295 295 296 296 297 297 297 297 295 290 291 290 284 284 283 282 287 291 290 291 279 278 283 278 282 279 275 272 271 270 272 274 277 281 276 276 282 282 284 287 289 290 289 288 289
294 294 294 295 295 295 295 295 295 295 295 295 296 296 296 296 296 296 289 291 289 285 278 279 290 285 290 290 289 288 285 284 283 279 274 271 269 276 271 274 274 276 277 276 274 278 280 282 284 284 284 285 284 284
293 293 294 294 294 294 294 294 294 294 295 295 296 296 295 296 296 294 291 291 292 284 277 279 283 285 286 286 285 285 284 282 279 276 274 271 275 273 275 275 272 276 274 272 272 278 278 279 281 282 280 279 278 278
293 293 293 293 293 294 294 294 294 294 294 295 295 294 295 295 295 290 282 289 291 290 281 275 281 281 284 284 283 283 283 281 280 277 274 276 280 276 269 268 275 278 279 279 276 273 274 277 280 278 274 274 276 277
292 293 293 293 293 293 293 294 294 294 294 295 294 294 295 295 292 285 281 286 291 291 281 276 275 278 283 282 279 280 282 280 279 278 276 276 277 278 273 269 275 277 275 272 272 269 271 273 270 271 272 273 272 271
292 292 292 293 293 293 293 293 294 294 294 294 294 294 294 295 294 287 290 293 292 286 283 274 273 270 278 274 273 279 277 278 279 277 274 274 275 275 269 274 273 269 268 270 267 268 267 268 269 269 269 268 266 266
292 292 292 292 292 292 292 293 294 294 293 293 293 293 291 288 284 284 293 294 292 284 276 276 267 266 276 274 279 278 278 268 276 271 274 271 267 265 268 268 266 265 264 264 265 264 265 264 264 264 265 264 263 263
291 291 291 292 292 292 292 293 293 293 293 292 288 284 279 284 292 291 285 278 281 282 281 275 278 272 277 276 274 272 272 267 263 269 274 267 269 273 265 264 264 263 264 263 260 259 260 259 260 261 261 262 262 262
291 291 291 291 291 291 291 292 292 292 291 286 281 279 285 290 285 280 274 273 272 268 272 271 272 270 276 270 270 275 269 269 263 264 264 259 261 265 263 262 262 262 262 261 261 261 261 260 259 259 259 259 260 260
290 290 290 290 291 291 291 292 292 288 285 284 283 285 285 281 277 273 272 270 267 264 268 267 268 270 270 275 269 270 265 266 262 264 260 257 265 259 258 258 259 260 259 258 259 258 258 259 258 257 257 257 258 258
290 290 290 290 290 291 291 292 292 290 289 285 281 276 274 272 269 266 264 265 260 264 264 264 265 271 272 275 270 269 268 264 263 258 259 261 259 258 256 256 257 257 258 257 256 256 256 256 257 257 256 258 258 257
289 289 289 289 290 291 291 292 291 289 283 277 272 264 270 269 267 263 263 263 265 268 267 268 270 272 270 271 271 267 268 265 258 255 260 254 254 254 254 255 253 253 254 254 254 255 255 256 256 257 257 257 257 257
289 289 289 289 289 289 292 291 291 286 280 274 272 262 262 265 263 261 261 263 262 264 268 269 267 271 266 267 268 267 264 262 260 259 253 253 254 253 253 253 252 252 253 253 254 254 255 255 256 256 256 257 257 258
288 288 286 289 289 290 292 289 284 282 277 274 272 267 260 261 258 257 257 259 262 265 266 264 265 267 265 268 265 262 259 257 255 246 250 253 252 252 252 252 252 253 253 254 255 255 256 256 255 255 256 257 259 258
286 280 287 289 290 291 289 282 280 273 270 269 262 257 258 256 253 252 253 258 262 260 261 264 264 261 266 265 263 253 251 247 246 250 250 250 251 251 252 252 253 253 254 255 255 255 256 257 256 255 254 256 258 258
279 283 287 288 288 284 281 280 273 271 268 259 258 254 254 255 254 253 255 259 259 261 260 260 260 261 262 262 251 247 247 248 247 248 251 252 251 252 252 252 254 254 255 255 255 256 256 255 255 254 255 256 257 257
281 284 287 286 283 277 271 271 270 262 256 256 258 257 255 253 256 256 254 257 258 258 258 258 256 256 248 249 246 245 247 246 249 250 251 251 250 252 253 254 254 255 255 255 256 256 256 256 255 255 255 256 255 255
283 284 283 283 281 273 265 265 269 260 255 257 258 255 256 255 254 252 250 254 255 255 254 252 248 248 250 250 248 247 250 251 250 249 249 251 253 254 254 254 255 255 255 256 257 258 257 256 256 256 256 255 255 255
275 275 277 274 268 265 262 261 262 259 259 254 257 256 251 253 249 248 248 252 251 248 248 249 249 250 246 245 246 245 249 250 250 250 250 251 254 254 254 256 255 254 254 255 255 256 257 256 256 257 256 256 256 256
270 273 268 270 266 262 260 260 259 263 257 254 254 254 249 247 247 247 252 250 249 246 246 244 244 244 243 243 245 247 248 249 252 254 254 253 251 252 254 255 253 252 253 254 256 255 256 257 257 257 257 256 257 257
267 266 262 260 258 256 252 258 255 256 253 251 252 249 248 246 247 252 250 248 247 248 247 245 244 244 245 248 249 252 253 253 253 253 252 252 253 254 255 255 254 252 252 254 256 256 256 257 257 257 257 257 256 256
262 254 252 251 252 249 252 250 255 253 253 253 252 247 247 247 252 251 248 248 249 249 247 247 248 249 252 252 252 253 253 254 253 253 252 251 251 252 254 255 254 253 253 254 255 255 255 255 256 255 255 255 255 255
254 245 248 245 250 249 247 245 246 250 248 249 250 250 248 249 249 246 245 245 249 249 250 251 252 252 251 252 253 253 254 253 252 252 252 252 251 252 253 254 254 253 253 252 252 253 254 254 254 253 253 253 253 253
243 242 242 241 244 244 246 243 243 244 246 248 247 249 248 249 246 245 245 248 248 249 250 250 250 251 252 252 251 252 252 253 253 253 252 252 251 249 249 249 249 251 252 251 252 251 252 252 251 250 250 249 250 250
241 240 242 243 242 243 242 243 243 244 244 244 243 245 249 245 243 245 249 250 250 251 252 252 252 251 252 252 253 253 253 253 253 253 254 253 252 251 250 248 248 249 251 250 250 251 249 249 250 249 249 248 245 245
241 241 241 240 240 240 240 240 240 239 240 242 241 243 244 244 246 248 250 251 251 252 252 253 253 253 253 253 253 252 252 252 253 253 254 253 252 251 250 249 250 254 250 250 251 253 249 246 245 244 244 243 243 244
239 239 240 239 239 241 240 240 239 241 242 239 240 243 244 246 247 247 250 252 252 251 251 252 252 252 252 252 252 250 248 248 248 247 247 247 248 249 248 247 247 248 247 245 251 254 254 249 245 243 242 242 242 240
238 237 239 237 240 241 241 240 239 239 241 241 239 244 245 245 247 250 251 250 250 250 251 251 250 248 247 246 246 247 246 246 246 247 246 246 248 247 247 247 247 245 243 240 245 245 249 244 245 241 241 240 239 239
238 236 239 240 240 239 237 235 234 236 238 236 236 238 241 241 244 245 249 248 247 245 245 244 244 243 243 242 241 241 245 243 243 244 242 243 244 245 245 246 246 243 241 239 240 240 241 242 240 239 239 240 241 241
236 235 239 241 240 237 235 235 235 236 236 236 237 234 238 239 241 244 244 245 242 242 246 243 242 248 245 247 242 243 247 244 243 246 245 246 246 246 247 247 245 243 242 244 243 243 242 241 241 241 242 242 242 242
234 233 233 237 239 239 236 236 237 237 236 236 237 234 235 238 243 246 245 243 247 248 248 248 248 245 245 245 245 246 247 246 246 252 254 253 252 252 251 249 247 246 246 246 246 246 245 244 243 243 243 244 244 244
Wind_Speed
21 24 24 23 22 21 20 18 19 18 18 18 19 19 18 16 16 11 6 9 7 5 11 11 15 11 7 7 10 9 8 3 6 11 12 12 9 6 9 13 19 24 14 13 14 18 21 14 7 10 14 21 15 15
24 24 25 24 22 21 20 20 20 19 19 20 20 22 19 21 18 15 8 6 7 8 4 3 10 11 14 19 11 2 4 5 4 5 8 6 9 8 10 7 6 3 5 5 6 8 14 5 10 20 19 10 8 13
22 26 22 24 23 22 21 22 20 21 22 21 21 23 21 21 20 15 8 5 3 7 10 10 14 19 15 15 12 7 2 7 4 5 4 4 6 3 8 6 13 12 23 15 13 7 25 29 21 13 14 12 14 14
23 23 24 25 24 24 24 23 24 22 24 24 22 24 22 22 21 19 6 6 4 4 5 6 6 8 9 13 16 15 18 11 8 2 3 4 4 6 8 11 14 13 20 18 24 20 24 19 16 18 18 14 14 15
24 23 24 24 26 25 25 25 24 24 25 24 24 25 23 22 21 15 6 6 8 8 5 5 0 6 7 8 14 14 13 14 7 6 5 6 5 7 8 12 13 13 17 15 20 22 21 24 22 22 18 17 13 16
23 23 24 23 23 24 24 24 24 25 24 23 25 22 22 22 21 7 4 8 12 9 7 6 4 11 10 16 17 16 13 11 8 4 4 6 11 8 6 11 15 18 20 21 19 15 15 16 17 9 14 19 19 16
23 24 23 24 23 22 23 23 24 25 25 24 23 22 21 23 11 6 4 4 1 8 5 6 4 3 10 8 3 4 7 6 7 8 7 11 12 13 12 16 22 21 13 14 12 16 13 9 12 21 18 18 19 21
24 24 23 24 25 22 22 23 27 25 22 21 19 21 21 21 17 11 11 15 5 2 3 4 4 2 5 4 3 5 4 5 6 7 2 7 6 7 10 20 8 10 14 8 15 13 16 21 19 20 18 16 21 21
26 23 23 23 22 21 21 21 20 20 19 17 19 18 10 3 4 4 9 15 8 5 4 4 5 6 1 2 1 2 3 2 3 4 7 1 4 6 5 3 7 10 10 15 17 14 14 15 21 23 21 19 19 23
24 22 22 23 23 21 19 19 19 18 14 11 3 1 4 4 4 10 3 2 4 4 3 2 2 2 4 6 5 3 2 4 3 6 1 4 11 1 8 6 6 10 11 13 16 16 18 20 19 26 25 21 19 22
22 22 22 22 22 22 19 18 17 13 5 2 3 3 2 6 1 2 4 4 4 3 4 5 6 5 2 4 5 4 4 4 4 7 6 4 5 4 6 7 9 10 12 13 14 17 19 19 22 24 26 21 21 22
22 20 22 22 21 22 20 18 16 9 3 4 3 2 1 3 4 5 4 2 3 7 3 4 3 4 3 1 3 3 4 1 6 3 5 4 1 6 7 11 12 12 13 15 15 19 20 21 19 22 24 24 22 23
21 21 22 21 21 20 21 20 19 11 10 2 2 3 3 3 4 3 5 3 2 2 3 0 2 3 0 1 3 3 4 5 1 3 6 4 5 6 8 10 13 13 14 17 18 17 20 22 19 20 22 20 23 22
23 22 21 19 18 19 19 18 17 13 4 4 5 4 4 3 4 4 3 3 0 2 3 2 2 2 2 2 3 4 6 3 2 3 9 2 4 9 9 9 12 18 16 18 19 19 20 20 20 20 19 18 19 20
22 20 17 14 15 14 20 19 18 3 3 4 3 5 5 2 4 3 1 2 3 2 2 2 2 1 2 4 3 3 3 5 7 7 2 5 10 11 13 13 14 15 16 17 18 18 19 20 19 19 17 17 19 14
11 12 10 14 16 16 20 15 5 2 2 2 3 3 1 3 0 3 4 3 4 4 2 0 4 3 5 4 4 7 3 7 2 2 4 8 11 12 14 14 14 15 16 17 17 18 18 18 18 18 17 15 13 9
5 4 8 15 18 18 23 5 3 3 5 3 2 3 1 4 2 2 2 2 4 2 1 2 4 7 2 4 4 3 3 2 3 6 4 6 11 14 14 14 15 16 17 17 17 17 17 15 14 13 14 14 13 8
4 3 12 22 14 9 3 4 4 4 4 3 2 2 3 2 2 2 2 4 4 2 2 1 3 3 3 4 1 2 3 3 3 3 8 10 11 12 10 14 15 16 16 16 15 15 13 13 12 10 13 12 9 9
3 4 10 13 9 6 4 3 3 5 3 3 4 3 3 2 2 2 2 2 2 1 2 1 2 1 0 1 1 2 3 3 8 8 9 9 7 10 13 13 14 13 14 14 13 9 9 10 8 8 8 8 7 7
21 21 16 19 10 4 5 3 3 5 3 2 3 2 3 3 1 1 2 2 1 1 3 2 1 0 1 2 1 3 5 6 7 8 9 8 8 12 12 12 10 12 10 12 9 10 8 7 6 7 7 8 8 8
13 11 17 9 6 8 5 3 4 3 3 4 3 2 2 2 2 2 2 2 3 2 2 1 0 2 2 3 3 2 5 5 5 5 9 10 10 9 9 9 10 9 9 9 9 9 9 8 7 6 7 7 7 7
4 13 4 8 5 4 6 5 3 3 4 3 3 2 2 1 1 1 2 3 2 1 2 2 2 1 3 4 5 4 4 4 5 5 7 8 6 8 9 9 9 9 9 9 9 8 8 8 7 7 7 7 8 9
7 6 6 8 6 8 2 4 4 4 4 1 1 3 2 1 1 1 2 1 2 2 2 2 4 4 4 5 3 3 3 4 4 5 6 6 6 6 6 7 8 8 9 10 9 8 8 11 10 8 8 8 8 9
12 9 8 6 6 3 3 5 3 3 3 2 3 2 1 0 1 0 1 1 2 1 1 2 2 3 1 1 1 2 4 4 4 4 6 6 6 7 7 6 7 8 8 8 8 9 9 9 11 9 9 10 10 10
10 11 6 7 4 5 5 4 5 4 3 3 2 2 1 2 1 1 2 3 1 1 0 1 1 1 1 2 2 2 2 3 4 4 5 5 5 5 6 6 5 8 9 10 12 11 10 10 10 10 11 10 11 11
11 5 5 3 3 4 2 3 3 1 2 2 1 1 1 0 1 4 3 3 2 2 1 0 0 2 1 1 2 2 3 3 4 2 1 3 4 4 6 7 8 7 10 8 9 9 10 9 8 9 9 11 12 8
6 3 3 1 1 2 4 3 1 2 2 1 2 3 0 1 4 4 1 1 2 2 2 1 1 0 1 2 2 2 4 3 4 4 0 2 1 2 3 4 7 5 8 8 7 6 6 6 6 7 6 5 6 6
3 3 4 3 3 1 4 2 2 2 2 2 3 0 3 6 4 2 1 1 2 1 1 1 1 1 1 2 1 3 4 5 5 3 2 2 2 2 0 2 3 9 6 7 7 7 3 3 3 4 4 3 4 4
3 2 2 3 2 2 2 4 3 3 2 3 3 2 3 3 3 2 2 2 2 1 1 2 2 1 2 2 2 2 2 2 3 3 2 2 3 3 1 2 3 3 3 5 10 10 7 3 1 1 2 2 3 3
3 1 3 2 3 1 4 3 3 2 1 3 2 3 3 4 4 2 2 2 3 3 3 2 2 2 2 0 3 4 2 3 3 3 2 3 4 3 4 5 5 4 3 3 5 5 7 4 5 5 5 4 4 3
0 3 2 0 3 3 2 2 2 1 1 1 0 3 4 4 5 3 4 4 3 3 3 2 3 3 3 3 3 1 4 3 5 6 5 4 5 6 6 6 5 3 3 3 3 3 2 2 2 3 5 5 6 4
2 2 3 1 3 3 3 3 1 0 2 1 3 1 5 4 4 4 3 4 3 3 6 4 3 6 6 5 3 4 5 3 4 6 9 6 7 8 7 6 4 3 4 5 4 3 4 5 4 5 5 8 7 7
2 1 0 1 4 3 4 3 3 4 2 2 3 2 2 3 6 5 3 3 5 5 6 6 6 4 6 6 6 5 7 6 7 10 12 12 13 12 7 6 5 5 6 5 5 5 7 7 7 7 7 7 8 7
Wind_Direction
276 275 272 280 276 273 276 276 279 282 282 278 275 276 271 262 256 261 252 211 219 247 265 252 266 259 256 259 278 290 328 300 269 250 257 280 292 286 295 301 263 246 230 225 232 237 247 356 326 263 336 325 357 10
278 277 275 270 276 274 273 277 277 280 281 281 283 277 269 271 255 250 261 239 237 240 261 278 271 272 258 251 260 218 224 299 276 313 318 339 317 304 308 279 358 300 10 310 313 331 318 282 306 296 296 311 346 325
286 283 278 267 272 274 274 276 276 281 284 281 281 275 272 269 268 256 243 240 225 251 260 238 240 239 242 234 239 234 243 232 230 234 292 297 277 26 288 283 315 303 297 283 307 328 308 296 305 330 334 338 329 314
287 284 274 274 270 270 271 273 275 277 281 279 275 278 273 265 266 262 241 230 220 263 271 262 232 222 227 226 230 230 238 251 263 258 251 255 255 221 264 282 282 284 314 303 296 289 304 294 320 312 306 307 313 307
279 283 275 277 277 279 270 271 274 275 276 281 276 273 271 274 265 260 248 231 213 230 284 288 279 268 232 224 227 228 235 243 237 247 225 243 251 267 258 270 271 271 275 284 286 294 294 303 325 321 329 337 343 320
274 276 274 269 275 272 272 268 268 269 275 271 272 277 276 276 263 253 240 218 212 195 251 263 247 230 224 223 228 240 233 235 229 212 227 225 228 251 256 256 264 271 273 279 304 336 313 295 302 10 338 318 307 310
275 276 275 275 276 276 274 273 275 275 271 268 273 278 278 272 248 210 199 160 149 192 224 225 230 265 229 216 215 226 226 216 212 231 228 240 252 255 261 269 274 279 332 337 12 352 321 349 314 309 308 307 317 307
267 271 274 272 268 268 269 276 275 265 262 266 278 282 280 267 253 237 232 234 167 182 232 254 258 17 182 186 218 179 205 191 217 215 250 239 268 250 262 266 320 4 341 324 354 341 305 297 301 306 312 316 315 308
263 267 268 270 268 273 278 278 274 260 259 271 278 285 289 250 210 219 191 220 205 204 240 207 187 252 24 302 1 285 206 224 219 197 234 156 231 236 211 308 354 1 346 314 318 314 300 310 305 305 311 313 306 301
263 265 263 263 266 268 273 273 270 262 268 286 314 180 236 203 201 115 75 156 187 214 253 298 72 234 152 203 205 208 189 208 218 234 221 191 242 306 83 59 6 341 332 331 325 327 323 309 310 306 306 305 301 298
266 264 263 265 264 265 265 262 270 249 138 137 204 231 8 314 352 207 182 172 184 224 218 225 182 218 250 177 207 225 200 217 200 244 158 246 256 105 59 20 348 330 320 315 301 293 296 295 300 301 302 301 299 296
263 265 262 263 263 259 259 247 250 209 178 175 135 92 200 209 199 218 189 95 178 214 250 170 218 177 280 99 124 253 192 190 238 210 100 254 93 65 11 335 324 316 313 304 301 298 296 295 295 291 293 296 296 296
262 265 261 260 259 258 255 238 230 179 110 94 140 200 188 224 231 234 181 218 231 210 241 271 283 196 305 185 223 224 229 233 63 82 220 233 79 12 341 324 317 315 310 307 304 297 296 293 292 290 290 291 293 291
266 260 259 259 262 263 239 229 205 170 120 172 181 243 217 206 219 198 170 153 39 335 13 339 262 204 237 203 248 231 238 52 292 226 242 61 6 326 321 318 317 314 311 306 303 302 300 300 300 297 293 295 293 292
264 254 244 243 257 247 242 204 175 119 123 183 166 221 215 227 48 61 25 79 24 299 326 284 293 243 245 245 212 234 253 231 205 236 36 334 326 318 318 316 310 309 309 305 305 304 304 302 303 302 301 299 295 292
256 248 240 236 244 231 206 123 76 104 65 124 201 245 56 49 180 50 3 77 12 342 321 293 267 226 230 217 226 215 201 218 271 336 298 317 315 315 312 310 306 302 302 304 305 306 304 310 308 305 307 307 309 308
247 221 227 239 234 187 124 105 104 120 139 164 142 33 56 90 114 100 348 20 329 289 249 299 236 229 345 234 227 36 212 235 276 307 296 298 306 310 307 307 310 308 309 310 310 309 310 309 312 318 321 322 321 330
232 309 283 266 173 98 46 51 93 118 125 25 123 80 60 23 114 80 6 10 326 12 337 291 319 248 251 250 331 332 330 309 264 298 302 305 302 301 304 308 309 310 311 314 311 312 317 327 331 330 328 330 343 354
102 60 109 93 74 88 86 54 32 98 80 98 99 71 80 106 61 51 20 6 8 336 309 291 244 245 280 40 286 289 301 294 310 314 301 298 293 309 309 311 311 315 318 314 316 321 333 334 333 334 339 346 6 11
59 54 64 65 57 77 75 28 48 86 98 113 76 68 61 66 105 83 39 7 354 354 49 47 83 84 327 355 273 275 296 302 308 312 311 320 319 321 321 317 324 324 319 317 328 338 344 348 354 354 359 10 16 24
29 354 21 47 51 54 68 2 65 82 98 85 128 83 92 66 37 31 6 285 63 38 84 105 225 268 273 256 254 245 278 269 300 286 296 308 325 317 318 332 335 335 331 328 343 346 359 0 355 360 15 24 27 30
17 11 50 18 73 62 72 18 44 82 75 125 74 67 76 64 25 349 274 55 61 221 173 193 251 274 308 289 272 244 258 284 284 289 314 320 318 328 335 350 347 341 336 341 349 352 355 357 5 14 25 31 38 46
34 33 52 14 74 41 342 338 73 8 99 153 110 77 31 47 236 254 86 140 218 218 197 212 245 234 218 268 301 321 327 331 337 355 343 330 319 321 335 360 359 351 348 351 354 360 5 6 11 22 30 39 45 50
32 46 37 41 34 60 13 28 7 52 35 56 77 92 22 79 214 66 122 204 219 187 58 296 284 318 316 319 11 1 5 351 357 14 5 350 344 341 345 357 13 9 357 342 358 10 13 17 17 23 26 36 41 44
71 354 25 22 12 41 46 24 355 48 74 3 93 132 2 312 152 31 223 250 178 156 355 313 327 5 354 313 341 357 56 9 350 8 3 356 335 333 356 3 8 28 0 1 7 6 12 14 19 24 28 31 39 40
69 319 64 358 1 72 357 75 41 58 1 75 51 335 330 295 98 243 228 174 172 161 151 89 5 343 65 47 306 331 328 334 314 284 20 9 5 1 346 351 353 354 3 354 353 360 3 7 16 23 29 23 25 36
77 354 343 223 138 88 51 23 8 69 69 104 328 337 313 200 245 250 179 190 152 171 152 150 124 183 316 321 295 298 300 279 265 273 240 145 95 35 13 349 342 313 334 335 336 358 354 356 7 14 19 21 18 13
117 40 102 285 44 36 119 59 87 164 226 261 58 253 193 197 238 228 184 140 127 121 171 149 172 220 269 271 267 307 314 319 293 239 224 151 182 169 135 280 292 331 331 329 324 338 349 2 5 354 6 9 338 354
48 332 56 27 9 43 150 155 206 230 196 107 152 258 257 244 231 217 223 168 138 130 198 211 219 171 268 259 257 227 223 327 28 42 15 307 321 291 301 308 302 307 322 324 328 345 352 359 130 3 316 308 294 307
317 37 86 58 95 252 242 158 210 268 261 179 192 305 290 277 245 200 159 152 170 199 204 188 156 141 235 268 300 312 231 184 184 158 198 251 245 277 314 308 309 305 316 336 318 317 333 6 349 4 5 358 360 343
95 40 41 129 202 244 228 290 315 329 339 287 263 176 253 295 306 245 197 189 173 140 129 236 259 219 201 238 206 286 304 269 215 231 236 256 272 271 268 265 254 249 238 249 268 279 296 312 319 319 316 318 316 311
24 98 127 47 289 292 24 40 262 276 303 23 280 319 320 359 288 276 227 124 116 197 221 183 194 249 212 222 217 229 221 238 219 228 236 239 245 248 251 251 241 228 230 250 246 245 241 248 268 264 271 279 279 276
35 73 180 20 7 359 329 37 13 335 355 313 279 221 231 193 245 275 294 204 189 199 207 212 223 220 214 216 221 235 233 238 248 257 259 254 255 260 262 252 235 223 234 243 246 242 249 250 258 261 265 268 274 275